User: anonymous   Login
Location: Unspecified
(0.0000°N, 0.0000°E)
Time: 06:08:34
(UTC+00:00)
Language:

CANX 3B (BRITE-ASRA) - Orbit

View from above orbital plane
View from above orbital plane
View from above satellite
View from above satellite

Ground track
Ground track

The orbit data is extracted from the following two-line orbital elements,

1 39091U 13009F   15087.53862407  .00000297  00000-0  12013-3 0  9999
2 39091 098.6088 286.3967 0010360 187.1559 172.9479 14.34851752109098
Epoch (UTC): 28 March 2015 12:55:37
Eccentricity: 0.0010360
inclination: 98.6088°
perigee height: 768 km
apogee height: 783 km
right ascension of ascending node: 286.3967°
argument of perigee: 187.1559°
revolutions per day: 14.34851752
mean anomaly at epoch: 172.9479°
orbit number at epoch: 10909

The dashed part of the orbit path shows where the satellite is in the earth's shadow,  

DLR